Location: Lecco
(45.8566°N, 9.3977°E)
Time: 03:52:31
(UTC+02:00)

S-56A Canister/Altair - Pass Details

Date: 27 July 2019
Orbit: 633 x 2499 km, 38.9° (Epoch: 19 August)

Event Time Altitude Azimuth Distance (km) Brightness Sun altitude
Rises 10:39:40 0° 276° (W) 5,374 11.4 46.3°
Reaches altitude 10° 10:42:58 10° 272° (W) 4,577 11.2 46.8°
Maximum altitude 10:55:47 54° 200° (SSW) 2,824 11.1 48.8°
Drops below altitude 10° 11:10:09 10° 130° (SE) 5,079 12.6 51.0°
Sets 11:14:03 0° 126° (SE) 5,981 12.7 51.6°
